#timestamp,LO_Frequency,Hit,StdDev 
1457366415.8,286047000.4,N
1457366435.6,286047001.6,N
1457366455.4,286047002.9,N
1457366475.3,286047002.7,N
1457366495.1,286046999.8,N
1457366496.0,286046999.8,N
1457366515.8,286047001.1,N
1457366535.7,286046998.2,N
1457366555.5,286046999.6,N
1457366575.3,286047000.6,N
1457366595.2,286046997.3,N
1457366615.9,286046997.1,N
1457366635.7,286046997.3,N
1457366655.5,286046995.6,N
1457366675.4,286046997.7,N
1457366695.2,286046999.2,N
1457366715.0,286047000.9,N
1457366715.9,286047000.9,N
1457366735.8,286047001.1,N
1457366755.6,286046996.6,N
1457366775.4,286046994.9,N
1457366795.3,286046995.2,N
1457366815.1,286046995.7,N
1457366835.8,286046995.5,N
1457366855.7,286046995.5,N
1457366875.5,286046995.6,N
1457366895.3,286046993.8,N
1457366915.2,286046995.2,N
1457366935.9,286046999.3,N
1457366955.7,286046997.4,N
1457366975.6,286046993.5,N
1457366995.4,286046993.6,N
1457367015.2,286046995.1,N
1457367035.0,286046997.6,N
1457367036.0,286046997.6,N
1457367055.8,286046997.0,N
1457367075.6,286046997.7,N
1457367095.4,286046996.2,N
1457367115.3,286046997.1,N
1457367135.1,286046995.6,N
1457367155.8,286046994.4,N
1457367175.7,286046994.4,N
1457367195.5,286046993.9,N
1457367215.3,286046993.6,Y
1457367235.2,286046996.9,P
1457367255.9,286046998.8,P
1457367275.7,286046999.2,N
1457367295.6,286047001.1,N
1457367315.4,286047002.8,N
1457367335.2,286047000.8,N
1457367355.1,286047001.1,N
1457367356.0,286047001.1,N
1457367375.8,286046996.9,N
1457367395.6,286046996.1,N
1457367415.4,286046995.2,N
1457367435.3,286046998.0,N
1457367455.1,286046999.1,N
1457367475.8,286046998.3,N
1457367495.7,286046999.5,N
1457367515.5,286046995.1,N
1457367535.3,286046998.0,N
1457367555.2,286046997.5,N
1457367575.9,286046993.3,Y
1457367595.7,286046996.1,P
1457367615.6,286046995.6,P
1457367635.4,286046996.2,N
1457367655.2,286046994.9,Y
1457367675.1,286046998.9,P
1457367676.0,286046998.9,N
1457367695.8,286046998.2,N
1457367715.6,286046998.2,N
1457367735.5,286046996.9,Y
1457367755.3,286046997.3,P
1457367775.1,286046993.9,P
1457367795.9,286046995.6,N
1457367815.7,286046997.9,N
1457367835.5,286046997.0,N
1457367855.4,286047001.0,N
1457367875.2,286047001.5,N
1457367895.0,286047007.5,Y
1457367895.9,286047007.5,P
1457367915.8,286047008.0,N
1457367935.6,286047008.1,N
1457367955.4,286047009.0,N
1457367975.3,286047008.4,N
1457367995.1,286047006.6,N
1457367996.0,286047006.6,N
1457368015.8,286047009.2,N
1457368035.7,286047007.1,N
1457368055.5,286047001.3,N
1457368075.3,286047002.5,N
1457368095.1,286047000.2,N
1457368115.9,286046998.1,N
1457368135.7,286046999.3,N
1457368155.5,286046997.2,N
1457368175.4,286046999.0,N
1457368195.2,286046998.8,N
1457368215.0,286046999.4,N
1457368215.9,286046999.4,N
1457368235.8,286046997.4,N
1457368255.6,286046996.2,N
1457368275.4,286046993.9,N
1457368295.3,286046991.7,N
1457368315.1,286046995.4,N
1457368316.0,286046995.4,N
1457368335.8,286046995.4,N
1457368355.7,286046994.4,N
1457368375.5,286046990.9,N
1457368395.3,286046989.2,N
1457368415.1,286046989.3,N
1457368435.9,286046988.5,N
1457368455.7,286046990.6,N
1457368475.5,286046990.6,N
1457368495.4,286046990.3,N
1457368515.2,286046993.0,N
1457368535.0,286046994.1,N
1457368535.9,286046994.1,N
1457368555.8,286046996.1,N
1457368575.6,286046995.1,N
1457368595.4,286046997.1,N
1457368615.3,286046993.3,N
1457368635.1,286046995.2,N
1457368655.8,286046997.3,N
1457368675.7,286046999.8,N
1457368695.5,286047001.4,N
1457368715.3,286047002.9,N
1457368735.2,286047003.3,N
1457368755.9,286047001.6,N
1457368775.7,286047005.2,N
1457368795.5,286047006.4,N
1457368815.4,286047008.0,N
1457368835.2,286047010.4,N
1457368855.0,286047014.0,N
1457368855.9,286047014.0,N
1457368875.8,286047014.5,N
1457368895.6,286047016.9,N
1457368915.4,286047017.2,N
1457368935.3,286047017.1,N
1457368955.1,286047015.1,N
1457368975.8,286047016.7,N
1457368995.7,286047018.0,N
1457369015.5,286047020.3,N
1457369035.3,286047019.8,N
1457369055.2,286047017.6,N
1457369075.9,286047019.8,N
1457369095.7,286047017.5,N
1457369115.6,286047021.5,N
1457369135.4,286047022.4,N
1457369155.2,286047022.7,N
1457369175.0,286047022.8,N
1457369176.0,286047022.8,N
1457369195.8,286047023.1,N
1457369215.6,286047023.3,N
1457369235.5,286047023.5,Y
1457369255.3,286047006.4,P
1457369275.1,286047008.7,N
1457369295.8,286047006.2,N
1457369315.7,286047004.7,N
1457369335.5,286047005.9,N
1457369355.3,286047007.2,N
1457369375.2,286047008.9,N
1457369395.9,286047010.7,Y
1457369415.7,286046999.8,P
1457369435.6,286047000.5,N
1457369455.4,286047002.6,N
1457369475.2,286047000.5,N
1457369495.1,286046999.4,N
1457369496.0,286046999.4,N
1457369515.8,286047002.4,N
1457369535.6,286047002.6,N
1457369555.5,286046999.6,N
1457369575.3,286046999.6,N
1457369595.1,286046999.2,N
1457369615.9,286047002.0,N
1457369635.7,286047002.2,N
1457369655.5,286046998.0,N
1457369675.3,286046997.1,N
1457369695.2,286047000.9,N
1457369715.0,286047000.7,N
1457369715.9,286047000.7,N
1457369735.7,286046996.6,N
1457369755.6,286046996.6,N
1457369775.4,286046996.9,N
1457369795.2,286046995.5,N
1457369815.1,286046995.1,N
1457369816.0,286046995.1,N
1457369835.8,286046997.2,N
1457369855.6,286046997.9,N
1457369875.5,286046997.2,N
1457369895.3,286046997.8,N
1457369915.1,286046995.1,N
1457369935.9,286046996.5,N
1457369955.7,286046995.5,N
1457369975.5,286046993.9,N
1457369995.4,286046993.7,N
